User: anonymous   Login
Location: Bathurst
(33.4193°S, 149.5775°E)
Time: 19:22:51
(UTC+10:00)
Language:

Courier 1B Rocket - Orbit

View from above orbital plane
View from above orbital plane
View from above satellite
View from above satellite

Ground track
Ground track

The orbit data is extracted from the following two-line orbital elements,

1 00059U 60013B   21165.67444198  .00000073  00000-0 -17429-4 0  9990
2 00059  28.2459 157.5448 0189304  86.4216 275.7957 13.52986177995400
Epoch (UTC): 14 June 2021 16:11:11
Eccentricity: 0.0189304
inclination: 28.2459°
perigee height: 920 km
apogee height: 1202 km
right ascension of ascending node: 157.5448°
argument of perigee: 86.4216°
revolutions per day: 13.52986177
mean anomaly at epoch: 275.7957°
orbit number at epoch: 99540

The dashed part of the orbit path shows where the satellite is in the earth's shadow,  

DLR